Terminal Aerodrome Forecast
Issued by NWS Pittsburgh, PA

Current Version | Previous Version | Graphics & Text | Print | Product List | Glossary On
Versions: 1 2 3 4 5 6 7 8 9 10 11 12 13 14 15 16 17 18 19 20 21 22 23 24 25 26 27 28 29 30 31
000
FTUS41 KPBZ 211200 AAA
TAFPIT
TAF AMD
KPIT 211248Z 2113/2218 21012G25KT 4SM -SHRA BKN035
     FM211315 19010KT P6SM VCSH SCT035 SCT070
     FM211600 24010G15KT P6SM SCT035 BKN050
     FM212000 29010G15KT P6SM SCT035 BKN050
      TEMPO 2121/2123 27015G25KT -TSRA BKN035CB
     FM220100 30010KT P6SM BKN050=

USA.gov is the U.S. government's official web portal to all federal, state and local government web resources and services.